Location: Unspecified
(0.0000°N, 0.0000°E)
Time: 07:17:56
(UTC+00:00)

N. Korean satellite - Pass Details

Date: 22 November 2020
Orbit: 452 x 504 km, 97.2° (Epoch: 27 November)

Event Time Altitude Azimuth Distance (km) Brightness Sun altitude
Rises 05:08:25 0° 9° (N) 2,543 10.1 -8.9°
Reaches altitude 10° 05:10:27 10° 8° (N) 1,674 9.2 -8.4°
Maximum altitude 05:14:04 80° 281° (WNW) 506 6.5 -7.5°
Drops below altitude 10° 05:17:44 10° 194° (SSW) 1,704 9.4 -6.7°
Sets 05:19:50 0° 192° (SSW) 2,595 10.4 -6.2°
